TSC583 LFBO-CYUL

Flight info

Callsign TSC583
Flight time N/A
Altitude 32000
Route LACOU DCT CHALA DCT CNA DCT MANAK UT183 BAGAD DCT LARLA/N0438F340 DCT RATKA/M077F340 DCT ELSOX DCT DINIM/M077F350 NATF JOOPY/N0436F360 N342B MIILS DCT TIBOS ROCKT3
Aircraft A21N/M-SDE2E3FGHIRWXY/LB1

Departure

Time 2026-04-27 12:52
Airport Toulouse-Blagnac Airport (LFBO)

Arrival

Time N/A
Airport Montreal / Pierre Elliott Trudeau International Airport (CYUL)
Time Latitude Longitude Altitude Speed Heading
2026-04-27 12:22 43.63270 1.36919 499 ft 0 kts 144°
2026-04-27 12:38 43.63283 1.36906 499 ft 4 kts 144°
2026-04-27 12:38 43.63305 1.36885 499 ft 4 kts 144°
2026-04-27 12:38 43.63326 1.36865 499 ft 2 kts 144°
2026-04-27 12:38 43.63345 1.36851 499 ft 4 kts 183°
2026-04-27 12:39 43.63364 1.36865 499 ft 3 kts 234°
2026-04-27 12:39 43.63377 1.36892 499 ft 1 kts 234°
2026-04-27 12:39 43.63378 1.36893 499 ft 0 kts 234°
2026-04-27 12:46 43.63373 1.36883 499 ft 4 kts 234°
2026-04-27 12:46 43.63349 1.36836 499 ft 8 kts 235°
2026-04-27 12:46 43.63303 1.36748 499 ft 16 kts 233°
2026-04-27 12:46 43.63232 1.36630 499 ft 17 kts 192°
2026-04-27 12:47 43.63125 1.36709 499 ft 19 kts 142°
2026-04-27 12:47 43.63021 1.36818 499 ft 19 kts 143°
2026-04-27 12:47 43.62912 1.36930 499 ft 19 kts 143°
2026-04-27 12:47 43.62803 1.37042 499 ft 20 kts 143°
2026-04-27 12:48 43.62694 1.37157 499 ft 20 kts 142°
2026-04-27 12:48 43.62586 1.37275 499 ft 20 kts 143°
2026-04-27 12:48 43.62475 1.37388 499 ft 20 kts 142°
2026-04-27 12:48 43.62366 1.37504 499 ft 20 kts 143°
2026-04-27 12:49 43.62252 1.37615 499 ft 20 kts 143°
2026-04-27 12:49 43.62140 1.37733 499 ft 20 kts 145°
2026-04-27 12:49 43.62027 1.37850 499 ft 20 kts 142°
2026-04-27 12:49 43.61914 1.37968 499 ft 20 kts 143°
2026-04-27 12:50 43.61799 1.38085 499 ft 21 kts 143°
2026-04-27 12:50 43.61677 1.38172 499 ft 21 kts 196°
2026-04-27 12:50 43.61596 1.38027 499 ft 18 kts 266°
2026-04-27 12:50 43.61634 1.37949 499 ft 9 kts 324°
2026-04-27 12:51 43.61687 1.37895 499 ft 14 kts 323°
2026-04-27 12:51 43.61949 1.37617 499 ft 83 kts 317°
2026-04-27 12:51 43.62595 1.36950 499 ft 149 kts 323°
2026-04-27 12:51 43.63569 1.35945 666 ft 198 kts 324°
2026-04-27 12:52 43.64732 1.34784 1505 ft 213 kts 323°
2026-04-27 12:52 43.65924 1.33492 2582 ft 216 kts 320°
2026-04-27 12:52 43.67092 1.32170 3729 ft 216 kts 321°
2026-04-27 12:52 43.68299 1.30824 4530 ft 236 kts 320°
2026-04-27 12:53 43.71116 1.27654 6040 ft 277 kts 320°
2026-04-27 12:53 43.72688 1.26087 7298 ft 280 kts 334°
2026-04-27 12:53 43.74588 1.25370 8409 ft 290 kts 348°
2026-04-27 12:54 43.76625 1.24886 9391 ft 301 kts 341°
2026-04-27 12:54 43.78551 1.23780 10614 ft 300 kts 333°
2026-04-27 12:54 43.80473 1.22481 11392 ft 320 kts 332°
2026-04-27 12:54 43.82526 1.21104 11987 ft 344 kts 333°
2026-04-27 12:55 43.84729 1.19655 12872 ft 361 kts 333°
2026-04-27 12:55 43.87034 1.18152 13842 ft 378 kts 333°
2026-04-27 12:55 43.89433 1.16593 14722 ft 395 kts 333°
2026-04-27 12:55 43.91965 1.14955 15608 ft 412 kts 334°
2026-04-27 12:56 43.94561 1.13280 16405 ft 403 kts 333°
2026-04-27 12:56 43.97038 1.11679 17217 ft 386 kts 333°
2026-04-27 12:56 43.99482 1.10099 18076 ft 388 kts 333°
2026-04-27 12:56 44.01955 1.08499 18885 ft 393 kts 333°
2026-04-27 12:57 44.04451 1.06879 19667 ft 398 kts 333°
2026-04-27 12:57 44.06959 1.05252 20462 ft 402 kts 333°
2026-04-27 12:57 44.09485 1.03612 21246 ft 407 kts 333°
2026-04-27 12:57 44.12095 1.01915 22050 ft 412 kts 333°
2026-04-27 12:58 44.14688 1.00227 22822 ft 417 kts 333°
2026-04-27 12:58 44.17353 0.98484 23602 ft 422 kts 333°
2026-04-27 12:58 44.20005 0.96755 24217 ft 426 kts 333°
2026-04-27 12:58 44.22714 0.94989 24824 ft 430 kts 333°
2026-04-27 12:59 44.25434 0.93215 25444 ft 433 kts 333°
2026-04-27 12:59 44.28149 0.91437 26048 ft 437 kts 332°
2026-04-27 12:59 44.30890 0.89572 26617 ft 440 kts 330°
2026-04-27 12:59 44.33637 0.87615 27188 ft 443 kts 330°
2026-04-27 13:00 44.36389 0.85639 27742 ft 447 kts 330°
2026-04-27 13:00 44.39161 0.83645 28270 ft 451 kts 330°
2026-04-27 13:00 44.41967 0.81623 28775 ft 454 kts 330°
2026-04-27 13:00 44.44755 0.79614 29261 ft 458 kts 330°
2026-04-27 13:01 44.47596 0.77567 29716 ft 461 kts 330°
2026-04-27 13:01 44.50463 0.75499 30142 ft 465 kts 330°
2026-04-27 13:01 44.53352 0.73415 30473 ft 468 kts 330°
2026-04-27 13:01 44.56263 0.71313 30754 ft 470 kts 330°
2026-04-27 13:02 44.59172 0.69206 30991 ft 471 kts 330°
2026-04-27 13:02 44.62090 0.67093 31214 ft 472 kts 330°
2026-04-27 13:02 44.64975 0.65002 31429 ft 472 kts 330°
2026-04-27 13:02 44.67911 0.62869 31624 ft 473 kts 330°
2026-04-27 13:03 44.70848 0.60729 31796 ft 475 kts 330°
2026-04-27 13:03 44.73794 0.58587 31940 ft 477 kts 330°
2026-04-27 13:03 44.79704 0.54278 32089 ft 485 kts 330°
2026-04-27 13:04 44.85753 0.49872 32208 ft 493 kts 330°
2026-04-27 13:04 44.91923 0.45434 32336 ft 502 kts 330°
2026-04-27 13:05 44.98220 0.41121 32486 ft 510 kts 333°
2026-04-27 13:05 45.04898 0.37366 32661 ft 521 kts 340°
2026-04-27 13:06 45.08443 0.36246 33199 ft 509 kts 356°
2026-04-27 13:06 45.11749 0.36637 36106 ft 470 kts 13°
2026-04-27 13:06 45.14769 0.38397 37608 ft 474 kts 30°
2026-04-27 13:06 45.17371 0.41461 37228 ft 507 kts 52°
2026-04-27 13:07 45.19006 0.45938 37494 ft 518 kts 77°
2026-04-27 13:07 45.19351 0.51011 38361 ft 517 kts 100°
2026-04-27 13:07 45.18399 0.55777 39495 ft 504 kts 113°
2026-04-27 13:07 45.16581 0.60142 38695 ft 526 kts 142°
2026-04-27 13:08 45.13661 0.62619 40715 ft 457 kts 169°
2026-04-27 13:08 45.10559 0.63905 40468 ft 485 kts 181°
2026-04-27 13:08 45.07353 0.63143 41549 ft 445 kts 213°
2026-04-27 13:08 45.05034 0.60696 44315 ft 396 kts 236°
2026-04-27 13:09 45.03685 0.57523 46131 ft 364 kts 260°
2026-04-27 13:09 45.03398 0.54061 47138 ft 351 kts 286°
2026-04-27 13:09 45.04215 0.50850 47747 ft 351 kts 312°
2026-04-27 13:09 45.05989 0.48517 48219 ft 358 kts 338°
2026-04-27 13:10 45.08420 0.47538 48642 ft 370 kts
2026-04-27 13:10 45.10968 0.48198 48977 ft 384 kts 31°
2026-04-27 13:10 45.13145 0.50404 49244 ft 398 kts 57°
2026-04-27 13:10 45.14520 0.53829 49551 ft 408 kts 82°
2026-04-27 13:11 45.14779 0.57843 49892 ft 412 kts 108°
2026-04-27 13:11 45.13859 0.61669 50233 ft 413 kts 133°
2026-04-27 13:11 45.11953 0.64597 50578 ft 409 kts 158°
2026-04-27 13:11 45.09362 0.66175 50919 ft 403 kts 183°
2026-04-27 13:12 45.06608 0.66091 51252 ft 396 kts 208°
2026-04-27 13:12 45.04174 0.64399 51591 ft 389 kts 232°
2026-04-27 13:12 45.02515 0.61444 51929 ft 385 kts 257°
2026-04-27 13:12 45.01931 0.57814 52251 ft 385 kts 281°
2026-04-27 13:13 45.02522 0.54137 52578 ft 389 kts 306°
2026-04-27 13:13 45.04203 0.51119 52895 ft 398 kts 329°
2026-04-27 13:13 45.06683 0.49340 53202 ft 409 kts 353°
2026-04-27 13:13 45.09554 0.49146 53503 ft 421 kts 17°
2026-04-27 13:14 45.12288 0.50602 53807 ft 433 kts 40°
2026-04-27 13:14 45.14494 0.53551 54127 ft 443 kts 64°
2026-04-27 13:14 45.15768 0.57561 54421 ft 450 kts 87°
2026-04-27 13:14 45.15898 0.61864 54716 ft 454 kts 109°
2026-04-27 13:15 45.14856 0.66108 54998 ft 455 kts 133°
2026-04-27 13:15 45.12810 0.69435 55287 ft 453 kts 155°
2026-04-27 13:15 45.10165 0.71840 53629 ft 465 kts 157°